Showing default

POSAT 1, 22829

Orbit data source: Space-Track

POSAT 1, 22829 is a payload satellite owned by INETI (PT) in SSO that was launched on Sun, 26 Sep 1993 UTC via an ARIANE 40 launch vehicle from the French Guiana (FRGUI). Payload-class satellites include a variety of spacecraft equipped with specific instruments for various scientific and technological missions. These include communications satellites like Starlink; space stations such as the ISS; scientific satellites like the Hubble; Earth observation satellites from companies like Planet Labs, Umbra, and HawkEye 360; GPS; miniature CubeSats for education and research; and military/defense satellites.

Loading next visibility...
Identifier
22829, 1993-061G
Orbit
SSO
Country
Flag of PTPT / POR
Related business
Manufacturer
SSTL
Mission
Non-operational Amateur Communications
Bus & Motor
UOSAT, Unknown motor
Mass
50 kg wet, 50 kg dry
Launch date (UTC)
1993-09-26 (32 years ago)
Launch vehicle
ARIANE 40
Launch site
French Guiana (FRGUI)
Object type
Payload
Rocket body
Debris
Shape & HBR
Box + 1 Ant, 3.3 m
Radar Cross Section
0.597 m², Medium (>0.1 m² and < 1m²)

Expand to show TLE details & history
Last TLE update: 22 hours ago

TLE from 22 hours ago
0 POSAT 1
1 22829U 93061G   25260.13380825  .00000085  00000-0  48455-4 0  9990
2 22829  98.7050 322.0646 0010794 110.6032 249.6310 14.31805136668974
Epoch: 2025-09-17T03:12Z
TLE epoch observation values (Epoch: 2025-09-17T03:12:41.032Z)
Latitude
-0.00002°
Longitude
-82.42049°
Altitude
791.333 km
Speed
7.457 km/s
True Right ascension
21h 28m 15s
True Declination
0° 00' 00"
Sunlit
Object was in full shadow at epoch
Visualization orbit readout
Latitude
Unknown
Longitude
Unknown
Altitude
Unknown
Speed
Unknown
Apparent Right ascension
Unknown
Apparent Declination
Unknown
Sunlit
N/A
Visualization observer readout
Local Sidereal Time
18:08:16
Azimuth
Unknown
Elevation
Unknown
Doppler factor
Unknown
Orbital elements
Apogee altitude
790.575 km
Perigee altitude
775.116 km
Semi-major axis
7,160.983 km
Eccentricity
0.00108
Inclination
98.705°
RAAN
322.0646°
Arg. of periapsis
110.6032°
True anomaly
249.5151°
Mean anomaly
249.631°
Eccentric anomaly
249.57304°
Mean motion
3.58166 °/min
Orbital period
100.51 mins
BSTAR
0.000048455
Loading maneuver chart data...
Computing Atmospheric mass density...
Loading historical data...
Loading historical data...
Loading historical data...
Loading historical data...
Loading historical data...
Loading historical data...
Loading historical data...

Documentation

Showing up to 5 results
|